Temperature
20 19 20 19 19 19 19 19 19 19 19 19 19 19 19 19 19 18 18 18 18 18 18 18 18 18 18 18 18 18 18 18 18 18 18 18 17 17 17 17 17 17 17
20 19 20 20 19 19 19 19 19 19 19 19 19 19 19 19 19 18 18 18 18 18 18 18 18 18 18 18 18 18 18 18 18 18 18 17 17 17 17 17 17 17 17
20 19 20 19 19 19 19 19 19 19 19 19 19 19 19 19 19 18 18 18 18 18 18 18 18 18 18 18 18 18 18 18 17 17 17 17 17 17 17 17 17 17 17
20 19 19 19 19 19 19 19 19 19 19 19 19 19 19 19 19 18 18 18 18 18 18 18 18 18 18 18 18 18 17 17 17 17 17 17 17 17 17 17 17 17 17
19 19 19 19 19 19 19 19 19 19 19 19 19 19 19 18 18 18 18 18 18 18 18 18 18 18 18 18 18 18 17 17 17 17 17 17 17 17 17 17 17 17 17
19 19 19 19 19 19 19 19 19 19 19 19 19 19 19 18 18 18 18 18 18 18 18 18 18 18 18 18 17 17 17 17 17 17 17 17 17 17 17 17 17 17 17
20 19 19 19 19 19 19 19 19 19 19 19 19 19 19 18 18 18 18 18 18 18 18 18 18 18 18 18 17 17 17 17 17 17 17 17 17 17 17 17 17 17 17
20 19 18 19 19 19 19 19 19 19 19 19 19 19 19 18 18 18 18 18 18 18 18 18 18 18 18 18 17 17 17 17 17 17 17 17 17 17 17 17 17 17 17
20 19 18 19 19 19 19 19 19 19 19 19 19 19 18 18 18 18 18 18 18 18 18 18 18 18 18 18 18 18 18 18 17 17 17 17 17 17 17 17 17 17 17
19 19 18 18 18 18 18 19 19 18 18 18 18 18 18 18 18 18 18 18 18 18 18 18 18 18 18 18 18 18 18 17 18 17 17 17 17 17 17 17 17 17 17
18 18 19 18 18 18 18 18 18 18 18 18 18 18 18 17 17 17 17 18 18 18 18 18 18 18 18 18 18 18 18 17 18 18 17 17 17 17 17 17 17 17 17
18 18 18 18 18 18 18 18 18 18 18 18 17 18 17 17 17 17 17 18 18 18 18 18 17 17 17 17 17 18 17 17 18 18 17 17 17 17 17 17 17 17 17
18 18 18 18 18 18 18 18 18 18 18 17 17 18 18 17 17 17 17 17 17 17 17 17 17 17 17 17 17 17 17 17 18 18 17 18 17 17 17 17 17 17 17
18 18 18 18 18 18 18 18 18 17 18 17 17 17 17 17 17 17 17 17 17 17 17 17 17 16 16 16 16 17 17 17 17 17 17 17 17 17 17 17 17 17 17
18 18 18 18 18 18 18 18 17 17 17 17 17 17 17 17 17 17 17 17 17 17 17 16 16 16 16 16 16 16 16 16 17 17 17 17 17 17 17 17 17 17 17
17 17 18 18 18 18 18 17 17 17 17 17 17 17 17 17 17 17 17 17 16 16 16 16 16 16 16 16 16 16 16 16 16 16 16 17 17 17 17 17 17 17 17
17 17 18 18 18 18 17 17 17 17 17 17 17 17 17 17 17 17 16 16 16 16 16 16 16 16 16 16 16 16 16 16 16 16 16 16 16 17 17 17 17 17 17
17 17 17 17 17 18 17 17 17 17 17 17 17 17 17 17 17 16 16 16 16 16 16 16 16 16 16 16 16 16 16 16 16 16 16 16 16 16 16 16 17 17 17
17 17 17 17 17 17 17 17 17 17 17 17 17 17 17 16 16 16 16 16 16 16 15 15 15 15 15 15 16 16 16 16 15 16 16 16 16 16 16 16 16 17 16
17 17 17 17 17 17 17 17 17 17 17 16 16 17 16 16 16 16 16 16 15 15 15 15 15 15 15 15 16 16 15 15 15 15 15 16 15 16 16 16 16 16 16
17 17 17 17 17 17 17 17 17 17 16 16 16 16 16 16 16 16 15 15 15 15 15 15 15 15 15 15 15 16 16 16 15 15 15 15 15 15 15 15 16 16 16
17 17 17 17 17 17 17 17 17 17 16 16 16 16 16 16 16 15 15 15 15 15 14 14 14 14 15 14 15 16 17 17 15 15 15 15 15 15 15 15 15 15 15
17 17 17 17 17 17 17 17 17 17 16 16 16 16 16 16 15 15 15 15 15 14 14 14 14 14 14 14 14 15 16 17 16 16 15 14 14 14 15 15 15 15 15
17 17 17 17 17 17 17 17 17 17 17 16 16 16 16 15 15 15 15 14 14 14 14 14 13 13 13 14 14 13 14 14 15 16 15 15 14 14 14 14 14 14 14
17 17 17 17 17 17 17 17 16 16 16 16 16 16 15 15 15 15 14 14 14 14 13 13 13 13 13 13 14 14 14 13 14 14 15 15 15 14 14 14 14 14 14
17 17 17 17 17 17 17 17 16 16 16 16 16 15 15 15 14 14 14 14 13 13 13 13 13 13 12 12 13 13 13 14 14 14 15 14 15 14 14 13 13 14 14
Wind_Speed
14 18 20 17 17 17 18 18 17 17 17 16 16 15 14 13 12 11 11 10 10 10 10 10 10 11 10 11 11 11 11 11 12 12 13 13 13 13 13 13 13 16 16
18 20 21 19 18 18 18 18 17 17 17 16 15 14 13 12 11 11 10 10 10 10 10 10 11 11 11 11 11 11 11 11 11 12 13 14 13 12 11 9 11 16 15
19 21 21 19 19 18 18 18 17 17 16 16 15 14 13 12 11 10 10 10 10 10 10 10 11 11 11 11 11 10 10 11 10 10 10 12 14 12 11 12 15 15 15
20 21 21 20 18 18 18 18 17 16 16 15 14 13 13 12 11 10 10 10 10 10 10 10 11 10 10 10 10 10 10 9 8 6 7 11 13 13 12 13 14 13 14
19 20 21 20 19 18 18 17 17 16 15 15 14 13 12 11 11 10 10 10 10 10 10 10 10 10 9 9 9 9 9 8 5 4 9 9 11 12 12 12 12 13 13
19 20 22 20 19 18 17 17 16 16 15 14 13 12 11 11 10 10 9 9 9 9 9 10 9 9 8 8 8 7 7 4 6 7 7 8 11 12 11 12 12 12 12
19 19 22 20 19 18 17 16 16 15 14 13 13 12 11 10 10 10 9 8 8 8 9 9 8 8 7 7 6 6 4 2 1 7 6 7 11 11 10 11 11 11 11
18 19 21 20 18 17 17 16 15 15 14 13 12 11 10 9 9 9 8 8 8 8 8 7 7 7 7 6 6 5 3 4 3 5 5 8 12 10 9 10 10 10 11
17 17 19 19 18 17 16 15 15 14 13 12 11 10 9 9 8 8 8 7 7 6 6 6 5 5 5 5 4 4 2 3 2 4 5 7 11 9 9 9 10 10 10
15 15 16 17 17 16 16 15 14 13 12 12 11 10 9 8 8 7 8 7 6 5 5 4 4 4 4 3 3 2 2 5 2 4 4 8 11 8 9 9 10 10 10
14 14 14 15 15 15 14 15 14 12 11 11 10 10 9 8 8 8 7 7 5 5 4 3 3 3 3 5 3 2 6 5 2 1 3 10 9 8 9 9 10 10 10
16 14 13 13 13 13 12 13 11 11 11 9 8 9 7 4 4 4 9 5 5 4 4 3 3 5 6 5 6 7 5 3 3 2 5 10 8 8 9 10 11 11 11
14 13 12 11 11 11 9 10 8 8 9 8 8 6 5 4 4 4 4 5 4 4 3 4 4 3 2 1 2 3 3 4 3 2 5 8 7 8 10 11 12 12 12
13 13 12 12 10 9 9 8 8 8 7 7 7 6 5 3 3 3 2 2 2 2 1 1 1 0 1 2 3 3 3 5 4 3 3 6 6 8 10 11 13 13 13
13 13 12 11 10 9 8 7 7 7 7 7 7 6 5 4 3 3 2 2 1 2 2 1 1 1 1 2 3 3 4 4 5 5 3 6 6 7 9 11 13 14 15
13 14 12 11 10 9 7 6 6 6 6 6 6 6 5 4 3 2 2 2 1 1 1 0 1 1 2 2 3 3 5 5 4 5 6 5 8 8 9 10 12 14 14
12 12 12 11 10 10 8 7 6 6 6 6 6 6 5 4 4 2 2 2 2 2 2 1 1 1 2 2 2 3 4 4 4 5 6 6 6 9 10 10 11 13 14
11 11 11 10 11 9 7 6 6 6 7 6 6 6 6 5 4 3 2 3 2 2 2 2 0 1 1 2 2 3 3 3 4 5 6 5 5 6 8 9 9 11 13
11 10 10 10 10 9 8 7 7 7 6 6 7 6 6 6 5 4 3 4 3 2 1 0 2 2 2 3 3 3 3 3 3 4 4 5 5 6 7 7 9 10 12
10 10 9 9 9 9 8 7 6 7 6 6 6 6 6 6 6 4 4 4 2 2 1 1 1 1 2 3 4 3 3 3 3 2 4 4 4 5 6 5 6 9 11
10 10 10 10 10 8 8 8 7 7 6 6 6 7 6 6 6 3 3 4 2 2 1 0 1 1 2 3 4 4 3 3 1 1 2 2 2 2 3 3 4 4 6
10 10 10 10 10 9 7 6 6 6 6 6 5 6 6 5 5 5 3 3 2 2 1 0 1 3 2 2 4 5 3 3 3 1 1 0 1 1 2 2 2 3 5
11 11 10 10 10 9 9 7 7 6 6 6 6 5 5 5 4 3 3 2 2 2 1 0 1 2 3 2 3 4 4 3 2 2 1 1 1 2 2 2 3 2 4
13 11 11 11 10 10 9 8 9 7 6 6 5 5 6 5 4 4 4 3 2 1 1 2 1 2 3 3 1 1 3 5 5 3 3 2 1 3 3 4 4 3 3
14 13 12 11 10 10 9 9 8 7 6 6 6 7 5 5 4 4 4 3 2 1 1 1 0 3 3 3 3 3 3 3 5 6 6 4 4 4 3 4 4 4 3
14 13 13 12 11 10 9 8 7 7 7 7 7 7 6 5 4 4 4 3 2 1 1 1 1 1 2 2 4 4 4 4 4 5 6 6 6 4 4 5 5 4 4
Wind_Direction
155 149 146 150 147 146 145 143 141 140 140 139 137 134 131 127 124 121 116 111 104 98 93 91 92 92 94 95 97 100 100 101 104 108 108 108 109 111 115 123 126 110 112
151 147 148 150 147 145 143 142 140 139 139 138 136 134 131 128 125 120 116 111 105 100 95 94 95 94 94 95 96 98 101 103 106 112 119 115 111 112 113 108 96 110 117
149 147 152 151 147 144 142 141 140 139 139 137 136 133 131 129 126 120 114 110 106 101 98 97 96 94 94 95 95 97 100 103 109 125 147 125 115 113 109 101 103 116 118
150 150 155 149 148 144 141 140 140 140 138 137 135 134 132 131 126 119 113 110 106 104 101 99 97 97 96 95 95 97 100 103 118 170 137 115 118 116 116 115 116 119 120
151 151 148 151 149 147 144 142 141 141 139 138 136 136 135 132 125 119 114 110 107 105 104 102 99 99 97 96 95 96 101 110 157 199 99 108 111 121 123 123 122 123 123
153 152 148 154 152 150 148 146 144 143 142 141 139 137 135 131 126 121 117 114 111 109 107 105 102 101 101 98 95 99 107 136 211 110 110 115 116 128 131 129 127 128 127
155 152 150 156 154 152 151 150 148 146 144 144 143 141 137 134 130 125 121 118 115 112 111 108 106 103 102 99 94 94 112 218 212 103 115 111 113 131 136 135 133 133 131
155 152 149 155 155 155 155 153 150 148 147 146 144 143 138 134 131 128 125 124 121 120 117 113 111 107 104 97 89 88 102 263 145 115 119 114 119 140 144 143 142 140 139
156 152 153 158 159 159 158 156 154 153 152 150 148 145 142 137 135 133 130 128 126 125 124 124 122 115 109 101 90 89 95 303 280 121 127 119 134 152 156 156 153 151 149
158 157 158 161 161 163 161 159 157 156 155 153 152 150 148 147 147 145 154 138 135 132 133 135 135 131 125 115 103 109 179 245 213 143 132 125 146 167 170 171 168 163 161
163 162 164 161 164 167 163 157 161 159 157 159 159 156 168 174 161 166 132 134 147 145 143 146 148 148 169 161 153 195 228 239 194 156 125 120 159 182 184 184 180 177 174
168 167 168 163 166 168 163 157 166 165 160 169 158 162 172 157 162 148 123 144 149 149 157 153 166 194 224 195 173 205 233 235 246 196 135 137 175 197 198 194 191 189 187
169 168 165 164 170 166 158 161 164 156 157 163 155 159 158 165 169 156 145 151 159 174 179 160 202 221 240 312 287 249 285 281 260 249 136 148 189 206 209 206 201 200 198
170 170 166 162 164 166 162 161 162 162 163 162 156 171 164 174 165 135 142 131 133 130 135 198 246 282 311 289 275 278 265 265 278 278 146 160 205 220 218 214 210 209 207
169 169 164 164 162 165 162 171 165 165 164 157 160 163 174 176 164 144 123 108 126 130 155 200 240 243 264 272 284 285 285 277 280 280 239 174 207 225 226 224 218 214 214
168 164 160 162 163 166 167 169 159 163 160 157 157 151 161 155 143 140 145 135 134 136 105 158 233 233 260 275 276 281 282 287 275 278 276 217 201 214 225 228 226 221 220
167 160 161 163 166 166 167 170 164 164 164 155 146 145 148 145 138 147 137 146 114 121 130 131 139 232 249 259 273 275 272 280 282 270 269 268 235 208 212 223 228 223 222
164 162 167 168 164 165 162 167 159 158 154 147 145 144 146 139 141 158 145 118 113 130 131 131 129 306 314 293 287 288 280 265 267 266 262 257 264 254 212 203 223 226 223
163 160 165 164 162 160 157 153 146 142 144 146 149 145 142 145 148 157 130 112 138 131 122 40 61 327 329 319 291 269 286 281 272 268 278 269 257 257 258 202 210 223 227
160 156 161 159 155 154 151 145 142 141 143 147 144 139 145 146 148 148 139 133 153 132 102 64 40 346 317 312 304 306 284 287 278 278 275 266 258 255 257 262 235 220 218
156 157 161 158 155 158 156 158 154 149 148 146 143 141 150 148 148 159 143 139 167 111 85 359 312 283 304 326 298 286 247 227 246 250 283 293 268 265 265 258 257 258 227
162 166 162 160 158 163 153 151 147 140 147 142 135 137 151 153 160 166 151 169 147 141 143 101 332 315 328 337 317 305 281 213 189 184 243 262 326 292 270 261 258 253 265
166 171 167 160 159 161 156 152 144 142 152 152 155 152 149 154 160 151 167 184 183 231 161 197 287 313 320 318 337 318 308 319 317 187 175 251 323 321 305 310 282 278 264
170 170 166 163 162 163 168 170 171 172 168 160 163 149 151 157 157 160 175 181 199 217 165 236 83 302 296 304 304 304 317 332 304 292 231 211 264 287 307 306 305 287 274
169 168 165 164 164 167 174 175 181 177 163 156 156 145 159 153 161 165 167 170 182 202 143 347 317 298 296 305 313 308 298 270 267 286 292 298 284 282 298 293 293 287 288
170 169 167 167 168 171 176 179 185 171 167 163 167 162 174 165 166 162 163 164 183 166 157 212 266 246 316 332 312 304 298 297 297 294 290 287 293 296 302 300 283 278 276
Height
1536 1537 1538 1541 1544 1547 1549 1551 1553 1555 1556 1557 1558 1560 1561 1562 1563 1564 1564 1565 1566 1566 1567 1567 1568 1568 1568 1568 1568 1569 1569 1569 1570 1570 1571 1571 1572 1573 1574 1574 1576 1576 1576
1535 1537 1539 1542 1545 1548 1550 1553 1554 1556 1558 1559 1560 1561 1563 1564 1565 1565 1566 1567 1567 1568 1568 1569 1569 1570 1570 1570 1570 1571 1571 1571 1572 1572 1573 1574 1574 1575 1576 1577 1578 1579 1579
1535 1537 1540 1543 1546 1549 1552 1554 1556 1558 1559 1561 1562 1563 1564 1565 1566 1567 1568 1568 1569 1570 1570 1571 1571 1571 1572 1572 1572 1573 1573 1574 1574 1575 1576 1578 1577 1577 1578 1579 1580 1581 1581
1535 1538 1541 1544 1548 1551 1553 1555 1557 1559 1561 1562 1564 1565 1566 1567 1568 1569 1569 1570 1571 1571 1572 1572 1573 1573 1574 1574 1575 1575 1575 1576 1577 1578 1580 1581 1580 1580 1581 1581 1582 1583 1584
1537 1540 1542 1545 1549 1552 1554 1557 1559 1561 1562 1564 1565 1566 1568 1569 1570 1570 1571 1572 1572 1573 1574 1574 1575 1575 1576 1576 1577 1577 1578 1578 1579 1581 1582 1582 1582 1582 1582 1583 1584 1585 1586
1538 1542 1543 1547 1550 1553 1556 1558 1560 1562 1564 1565 1567 1568 1569 1570 1571 1572 1573 1573 1574 1574 1575 1576 1576 1577 1578 1579 1579 1579 1580 1581 1582 1584 1584 1585 1584 1583 1584 1585 1586 1587 1588
1539 1543 1544 1548 1551 1554 1557 1559 1561 1563 1565 1566 1568 1569 1570 1571 1572 1573 1574 1575 1575 1576 1577 1577 1578 1579 1580 1580 1581 1581 1582 1582 1585 1586 1586 1586 1585 1585 1586 1587 1588 1589 1590
1541 1544 1545 1548 1552 1555 1558 1560 1562 1564 1566 1567 1569 1570 1571 1573 1574 1574 1575 1576 1577 1577 1578 1579 1580 1580 1581 1582 1582 1583 1583 1584 1587 1588 1588 1587 1586 1587 1588 1589 1589 1590 1591
1542 1545 1546 1550 1553 1556 1558 1561 1563 1565 1567 1568 1570 1571 1572 1574 1575 1576 1576 1577 1578 1579 1579 1580 1581 1581 1582 1583 1584 1584 1585 1585 1588 1589 1589 1589 1588 1588 1589 1590 1591 1591 1592
1542 1545 1547 1551 1554 1556 1559 1561 1563 1565 1567 1569 1570 1572 1573 1574 1575 1577 1577 1578 1579 1580 1580 1581 1582 1582 1583 1584 1585 1585 1586 1587 1589 1590 1590 1589 1589 1589 1590 1591 1592 1592 1593
1541 1544 1547 1551 1554 1557 1560 1561 1563 1565 1567 1569 1571 1572 1574 1576 1577 1578 1578 1579 1580 1580 1581 1582 1583 1583 1584 1584 1585 1586 1587 1589 1590 1590 1590 1589 1589 1590 1591 1591 1592 1593 1594
1540 1543 1547 1550 1553 1557 1560 1561 1564 1566 1568 1570 1572 1573 1575 1576 1578 1579 1578 1579 1580 1581 1581 1582 1583 1583 1584 1586 1586 1586 1588 1589 1590 1590 1590 1589 1589 1590 1591 1592 1593 1593 1594
1539 1543 1546 1549 1553 1557 1559 1561 1564 1566 1568 1570 1571 1573 1575 1576 1578 1579 1580 1580 1580 1581 1582 1582 1584 1585 1585 1586 1586 1587 1588 1589 1589 1590 1589 1588 1589 1590 1590 1591 1592 1593 1594
1538 1542 1546 1548 1552 1555 1559 1561 1563 1566 1568 1570 1571 1573 1574 1576 1577 1578 1579 1580 1581 1581 1582 1583 1583 1583 1584 1584 1585 1586 1586 1587 1588 1589 1588 1587 1588 1589 1590 1590 1591 1592 1593
1536 1541 1545 1548 1551 1554 1557 1560 1563 1565 1568 1569 1570 1572 1573 1575 1576 1577 1578 1579 1580 1581 1581 1582 1582 1582 1582 1583 1584 1584 1584 1585 1586 1587 1587 1586 1586 1587 1588 1589 1590 1591 1592
1535 1539 1543 1547 1551 1554 1557 1560 1562 1565 1566 1568 1570 1571 1573 1575 1576 1577 1577 1578 1579 1580 1580 1581 1581 1581 1581 1582 1582 1582 1582 1583 1583 1584 1585 1585 1584 1585 1586 1587 1588 1589 1590
1534 1539 1543 1546 1551 1554 1557 1560 1562 1564 1566 1567 1569 1570 1572 1574 1575 1576 1577 1578 1578 1579 1579 1580 1580 1580 1580 1581 1580 1581 1581 1580 1581 1581 1582 1582 1583 1583 1584 1584 1585 1587 1588
1535 1539 1543 1547 1550 1553 1556 1559 1561 1563 1565 1567 1568 1570 1571 1573 1574 1576 1577 1577 1577 1578 1579 1579 1579 1580 1579 1579 1579 1579 1579 1578 1578 1579 1580 1580 1580 1581 1582 1581 1582 1584 1585
1535 1539 1543 1547 1550 1553 1555 1558 1560 1562 1564 1566 1568 1570 1571 1572 1573 1575 1576 1576 1577 1578 1578 1579 1579 1579 1579 1578 1578 1577 1578 1577 1577 1577 1577 1577 1577 1578 1579 1579 1579 1580 1581
1535 1538 1542 1546 1549 1552 1555 1557 1559 1562 1564 1566 1568 1569 1570 1572 1573 1574 1575 1575 1577 1577 1577 1577 1577 1577 1577 1577 1577 1576 1576 1575 1575 1575 1575 1576 1575 1575 1576 1576 1576 1577 1578
1534 1538 1541 1545 1548 1551 1554 1557 1559 1561 1563 1565 1567 1568 1570 1571 1572 1573 1574 1574 1575 1576 1576 1577 1577 1577 1577 1576 1576 1576 1575 1574 1574 1573 1574 1574 1574 1573 1573 1573 1574 1574 1575
1533 1536 1541 1544 1547 1551 1553 1556 1558 1561 1563 1565 1566 1567 1569 1570 1571 1572 1572 1574 1574 1574 1574 1575 1575 1576 1576 1575 1575 1574 1574 1574 1572 1573 1572 1572 1572 1572 1572 1571 1571 1571 1571
1533 1536 1541 1544 1547 1550 1553 1556 1558 1560 1562 1564 1566 1567 1568 1569 1570 1570 1571 1572 1573 1574 1574 1573 1573 1574 1575 1574 1573 1574 1573 1571 1572 1572 1571 1571 1570 1570 1570 1569 1569 1568 1568
1533 1537 1540 1543 1547 1549 1552 1555 1558 1560 1562 1564 1565 1566 1566 1568 1568 1569 1570 1570 1571 1572 1572 1572 1572 1572 1572 1573 1573 1572 1572 1572 1572 1570 1570 1570 1569 1568 1568 1568 1567 1567 1566
1533 1536 1540 1543 1546 1549 1551 1554 1557 1559 1561 1562 1563 1564 1565 1566 1567 1568 1568 1568 1569 1570 1570 1570 1570 1570 1571 1571 1572 1571 1571 1571 1570 1570 1569 1569 1568 1567 1566 1566 1565 1565 1564
1532 1535 1539 1542 1545 1548 1550 1553 1555 1557 1559 1561 1562 1563 1565 1566 1566 1566 1567 1567 1568 1568 1568 1568 1568 1568 1568 1568 1569 1570 1570 1570 1569 1568 1567 1566 1566 1565 1564 1563 1563 1562 1562